Tracking 18850 objects as of 22-Nov-2017
HD Live streaming from Space Station
objects crossing your sky now

FENGYUN 1C DEB

Track FENGYUN 1C DEB now!
10-day predictions


NORAD ID: 32190
Int'l Code: 1999-025CUL
Perigee: 692.9 km
Apogee: 780.1 km
Inclination: 99.0 °
Period: 99.4 minutes
Semi major axis: 7107 km
RCS: 0.0105 m2 (small)
Launch date: May 10, 1999
Source: People's Republic of China (PRC)
Launch site: Taiyaun Space Center, China (TSC)

Note: This is SATELLITE DEBRIS
aabbcc
Your satellite tracking list
Your tracking list is empty




NASA's NSSDC Master Catalog

Two Line Element Set (TLE):
1 32190U 99025CUL 17326.34553327  .00002174  00000-0  57517-3 0  9993
2 32190  98.9844 163.0938 0061327 268.2390  91.1776 14.48863584542450
Source of the keplerian elements: AFSPC